Home > Time Zones > World Clock > Weather > U.S.A. > Napa > Past weeks

Flag for U.S.A. Weather past 2 weeks in Napa, California, U.S.A.

Now
37 °F

Clear.


Feels Like: 33 °F
Forecast: 30 / 52 °F
Wind: 5 mph from Southwest

Location: Napa County Airport

Current Time: Dec 26, 2014 at 10:45:37 PM

Latest Report: Dec 26, 2014 at 9:54 PM


Visibility: 10 mi

Pressure: 30.22 "Hg

Humidity: 76%

Dew point: 30 °F

Location of NapaLocation

Historic Weather in Napa — Graph

°F

Napa temperature yesterday

Maximum temperature yesterday: 58 °F (at 1:54 PM)
Minimum temperature yesterday: 35 °F (at 6:54 AM)
Average temperature yesterday: 45 °F

Past Weeks' High & Low Weather Summary

 TemperatureHumidityPressure
High64 °F (Dec 21, 1:54 PM)100% (Dec 11, 8:54 PM)30.30 "Hg (Dec 11, 8:54 PM)
Low35 °F (Dec 25, 6:54 AM)31% (Dec 26, 1:54 PM)29.64 "Hg (Dec 12, 12:54 AM)
Average51 °F89%30.06 "Hg
* Reported Dec 11 8:54 PM — Dec 26 8:54 PM, Napa, Weather by CustomWeather, © 2014

Note: Actual official high and low records may vary slightly from our data, if they occured in-between our weather recording intervals... More about our weather records

Advertising

Napa weather history for previous 24 hours

 ConditionsComfort  
Time TempWeatherWind HumidityBarometerVisibility
8:54 PM
Dec 26
41 °FClear.3 mph70%30.20 "Hg10 mi
7:54 PM41 °FClear.6 mph70%30.19 "Hg10 mi
6:54 PM45 °FClear.No wind53%30.18 "Hg10 mi
5:54 PM49 °FClear.7 mph44%30.17 "Hg10 mi
4:54 PM53 °FSunny.13 mph38%30.16 "Hg10 mi
3:54 PM57 °FSunny.13 mph36%30.15 "Hg10 mi
2:54 PM60 °FSunny.7 mph31%30.14 "Hg10 mi
1:54 PM60 °FSunny.9 mph31%30.13 "Hg10 mi
12:54 PM59 °FSunny.10 mph35%30.14 "Hg10 mi
11:54 AM58 °FSunny.14 mph35%30.16 "Hg10 mi
10:54 AM56 °FSunny.8 mph37%30.18 "Hg10 mi
9:54 AM54 °FSunny.13 mph40%30.19 "Hg10 mi
8:54 AM50 °FSunny.No wind44%30.18 "Hg10 mi
7:54 AM45 °FSunny.6 mph51%30.16 "Hg10 mi
6:54 AM42 °FClear.8 mph55%30.15 "Hg10 mi
5:54 AM44 °FClear.12 mph53%30.13 "Hg10 mi
4:54 AM46 °FClear.14 mph51%30.12 "Hg10 mi
3:54 AM46 °FClear.15 mph51%30.12 "Hg10 mi
2:54 AM46 °FClear.12 mph51%30.11 "Hg10 mi
1:54 AM43 °FClear.12 mph62%30.10 "Hg10 mi
12:54 AM43 °FClear.16 mph65%30.09 "Hg10 mi
11:54 PM
Dec 25
42 °FClear.9 mph68%30.09 "Hg10 mi
10:54 PM40 °FClear.8 mph77%30.11 "Hg10 mi
Weather by CustomWeather, © 2014

See weather overviewHow to use our weather pages